Regional Weather Roundup
Issued by NWS

Home | Current Version | Previous Version | Text Only | Print | Product List | Glossary Off
Versions: 1 2 3 4 5 6 7 8 9 10 11 12 13 14 15 16 17 18 19 20 21 22 23 24 25 26 27 28 29 30 31 32 33 34 35 36 37 38 39 40 41 42 43 44 45 46 47 48 49 50

000
ASUS45 KTFX 200119
RWRMT
MONTANA HOURLY WEATHER ROUNDUP
NATIONAL WEATHER SERVICE GREAT FALLS MT
719 PM MDT SUN OCT 19 2014

NOTE: "FAIR" INDICATES FEW OR NO CLOUDS BELOW 12000 FEET WITH NO
SIGNIFICANT WEATHER AND/OR OBSTRUCTIONS TO VISIBILITY.

* THESE STATIONS ARE NOT UNDER NWS QUALITY CONTROL. THEY DO NOT
   REPORT WEATHER SUCH AS PRECIPITATION OR FOG.

MTZ001>007-043-200200-
WEST OF THE DIVIDE
CITY           SKY/WX    TMP DP  RH WIND       PRES   REMARKS
KALISPELL      PTCLDY    52  41  66 CALM      29.91F
MISSOULA       CLEAR     59  43  56 N3        29.92S
BUTTE          PTCLDY    55  30  39 S8        30.03R
MULLAN PASS    PTCLDY    52  39  61 S5        30.00F
* ESSEX        N/A       47  43  86 S1         N/A
* LINCOLN      N/A       63  33  33 S2G10      N/A
* POLSON       N/A       52  43  72 N/A        N/A
* RONAN APT    CLEAR     57  45  64 N/A        N/A
* SEELEY LAKE  N/A       61  36  39 N2         N/A
* THOMP F APT  PTCLDY    59  26  28 SW1G11     N/A
$$

MTZ008-052>055-200200-
SOUTHWEST MONTANA
CITY           SKY/WX    TMP DP  RH WIND       PRES   REMARKS
BOZEMAN        PTCLDY    59  39  48 CALM      29.99S
DILLON         CLEAR     61  27  27 SE13      30.00S
W YELLOWSTONE  PTCLDY    46  19  34 S8        30.15S
* THREE FORKS  CLEAR     57  45  64 N/A        N/A
* BOULDER HILL N/A       54  28  37 SW3        N/A
* MONIDA PASS  N/A       52  27  38 SE13G19    N/A
* RAYNOLDS PAS N/A       50  28  43 SE11       N/A
* WHITEHALL    N/A       65  36  34 E3         N/A
* WISE RIVER   N/A       60  29  31 SE5G10     N/A
$$

MTZ009>010-012-014-046-048-049-054-200200-
EAST SLOPES AND CENTRAL MONTANA
CITY           SKY/WX    TMP DP  RH WIND       PRES   REMARKS
CUT BANK       CLEAR     57  34  42 W10       29.89R
GREAT FALLS    CLEAR     57  30  36 S12       29.90S
HELENA         CLEAR     61  39  44 SW8       29.94F
MALMSTROM AFB  CLEAR     55  32  42 SW10      29.91S
* CONRAD       CLEAR     61  30  31 N/A        N/A
* DEARBORN     N/A       66  35  32 SW2G8      N/A
* EAST GLACIER N/A       58  31  36 W14G19     N/A
* MONARCH      N/A       56  21  26 SE4        N/A
* PENDROY      N/A       59  28  31 NE3        N/A
* ROGERS PASS  N/A       59  30  33 SE6G13     N/A
* SAINT MARY   N/A       60  31  33 S8G19      N/A
* SWEET GRASS  N/A       61  31  32 SW11       N/A
* WHITE SULPH  N/A       54  23  30 W3G11      N/A
$$

MTZ011-013-016-021-035-040-045-047-050-051-200200-
NORTH CENTRAL MONTANA
CITY           SKY/WX    TMP DP  RH WIND       PRES   REMARKS
HAVRE          CLEAR     57  45  64 E8        29.87F
LEWISTOWN      CLEAR     55  34  45 SE6       29.96S
* CHINOOK      CLEAR     59  41  51 E7        29.89S
* FORT BENTON  CLEAR     68  37  32 E5        29.88S
* CHESTER      N/A       60  38  44 SE7        N/A
* DENTON       N/A       60  36  41 S11        N/A
* GEYSER       N/A       52  39  61 S12        N/A
* JUDITH GAP   N/A       53  34  49 SE7G12     N/A
* LOMA         N/A       62  40  45 NE6G11     N/A
$$

MTZ017>020-022>027-061-062-200200-
NORTHEAST MONTANA
CITY           SKY/WX    TMP DP  RH WIND       PRES   REMARKS
GLASGOW        MOCLDY    54  41  62 E12       29.94S
GLENDIVE       CLEAR     55  36  49 SE3       30.01S
SIDNEY         CLEAR     48  37  66 CALM      30.01R
WOLF POINT     PTCLDY    52  41  66 NE3       29.97S
* BEAVER HILL  N/A       56  37  49 E7         N/A
* CIRCLE       N/A       61  42  50 N/A        N/A
* LINDSAY DVD  N/A       55  33  43 E3         N/A
* NAVAJO       N/A       54  37  53 S8         N/A
$$

MTZ028>042-056>058-200200-
SOUTHCENTRAL AND SOUTHEAST MONTANA
CITY           SKY/WX    TMP DP  RH WIND       PRES   REMARKS
BAKER          PTCLDY    48  34  59 S7        30.04R
BILLINGS       FAIR      66  34  31 CALM      29.99R
LIVINGSTON     CLEAR     61  32  34 S10       29.99R
MILES CITY     PTCLDY    63  39  41 E6        29.99R
* LAUREL APT   CLEAR     61  30  31 N/A        N/A
* ROUNDUP APT  CLEAR     64  34  33 N/A        N/A
* ALZADA       N/A       60  38  44 N8         N/A
* HYSHAM       N/A       62  31  31 N/A        N/A
* LAME DEER    N/A       62  35  37 SE4        N/A
* REED POINT   N/A       61  30  31 NW2        N/A
* ROSCOE HILL  N/A       58  26  29 SE2        N/A
$$

REGIONAL REPORTS...DAKOTAS
CITY           SKY/WX    TMP DP  RH WIND       PRES   REMARKS
WILLISTON      CLEAR     45  37  74 CALM      29.99R
DICKINSON      CLEAR     55  37  51 E5        30.01R
BEACH          N/A       48  39  71 S3        30.03R
CROSBY         CLEAR     48  39  71 S7        29.99R
TIOGA          CLEAR     43  32  65 SW8       30.03R
BISMARCK       CLEAR     59  37  44 N6        30.00R
GRAND FORKS    CLEAR     46  39  77 SW3       29.87R
FARGO          CLEAR     52  39  61 CALM      29.89R
BUFFALO SD     CLEAR     61  34  36 NE7       29.99R
RAPID CITY     CLEAR     52  39  61 N6        30.06R
$$

REGIONAL REPORTS...WYOMING/IDAHO/WASHINGTON
CITY           SKY/WX    TMP DP  RH WIND       PRES   REMARKS
GILLETTE       CLEAR     55  37  51 CALM      30.07R
SHERIDAN       CLEAR     50  36  59 SW5       30.03R
CODY           CLEAR    N/A N/A N/A CALM      30.05R
YELLOWSTONE LA CLEAR     39  27  62 NW3       30.23S
MULLAN PASS    PTCLDY    52  39  61 S5        30.00S
SAND POINT     CLOUDY    57  50  78 CALM      29.85F
SPOKANE        CLOUDY    64  48  56 NE7       29.81S
$$

REGIONAL REPORTS...ALBERTA
CITY           SKY/WX    TMP DP  RH WIND       PRES   REMARKS
CALGARY        MOCLDY    52  36  55 NW5       29.73F
LETHBRIDGE     MOCLDY    55  39  55 S6        29.81F
MEDICINE HAT   MOCLDY    59  37  44 SE7       29.81F
EDMONTON       MOCLDY    52  36  55 SE10      29.65S
WATERTON GATE  N/A       59  36  42 SW17G28    N/A
CARDSTON       N/A       57  36  46 SW7        N/A
MILK RIVER     N/A       59  36  42 S10        N/A
$$

REGIONAL REPORTS...SASKATCHEWAN
CITY           SKY/WX    TMP DP  RH WIND       PRES   REMARKS
SWIFT CURRENT  CLEAR     52  39  61 S10       29.89S
MOOSE JAW      MOCLDY    52  43  72 SW8       29.93S
REGINA         PTCLDY    54  41  62 S7        29.94F
VAL MARIE      N/A       52  41  66 S5         N/A
ASSINIBOIA     N/A       55  39  55 S7         N/A
CORONACH       N/A       46  34  63 SW5        N/A

$$




USA.gov is the U.S. government's official web portal to all federal, state and local government web resources and services.